Time,TemperatureF,DewpointF,PressureIn,WindDirection,WindDirectionDegrees,WindSpeedMPH,WindSpeedGustMPH,Humidity,HourlyPrecipIn,Conditions,Clouds,dailyrainin,SoftwareType,DateUTC
2013-01-23 00:00:00,10.3,0.6,30.11,West,266,0.0,0.0,64,0.00,,,0.00,WeatherCatV1.02B3,2013-01-23 05:00:00,
2013-01-23 00:05:00,10.2,1.1,30.11,West,266,0.0,0.0,66,0.00,,,0.00,WeatherCatV1.02B3,2013-01-23 05:05:00,
2013-01-23 00:06:00,10.1,1.0,30.11,West,266,0.0,0.0,66,0.00,,,0.00,WeatherCatV1.02B3,2013-01-23 05:06:00,
2013-01-23 00:11:00,10.1,1.4,30.11,WNW,284,0.0,0.0,67,0.00,,,0.00,WeatherCatV1.02B3,2013-01-23 05:11:00,
2013-01-23 00:16:00,10.2,1.8,30.11,WNW,284,0.0,0.0,68,0.00,,,0.00,WeatherCatV1.02B3,2013-01-23 05:16:00,
2013-01-23 00:21:00,10.1,1.7,30.11,WNW,284,0.0,0.0,68,0.00,,,0.00,WeatherCatV1.02B3,2013-01-23 05:21:00,
2013-01-23 00:26:00,10.3,2.2,30.11,WNW,288,0.0,0.0,69,0.00,,,0.00,WeatherCatV1.02B3,2013-01-23 05:26:00,
2013-01-23 00:31:00,10.3,2.2,30.11,WNW,296,0.0,0.0,69,0.00,,,0.00,WeatherCatV1.02B3,2013-01-23 05:31:00,
2013-01-23 00:36:00,10.3,2.8,30.11,West,263,0.0,0.0,71,0.00,,,0.00,WeatherCatV1.02B3,2013-01-23 05:36:00,
2013-01-23 00:41:00,10.5,3.3,30.10,West,277,0.0,0.0,72,0.00,,,0.00,WeatherCatV1.02B3,2013-01-23 05:41:00,
2013-01-23 00:46:00,10.5,3.3,30.10,WNW,285,0.0,0.0,72,0.00,,,0.00,WeatherCatV1.02B3,2013-01-23 05:46:00,
2013-01-23 00:51:00,10.4,3.2,30.10,WNW,290,0.0,0.0,72,0.00,,,0.00,WeatherCatV1.02B3,2013-01-23 05:51:00,
2013-01-23 00:56:00,10.4,3.2,30.10,WNW,298,0.0,0.0,72,0.00,,,0.00,WeatherCatV1.02B3,2013-01-23 05:56:00,
2013-01-23 01:01:00,10.4,2.9,30.10,NW,317,0.0,0.0,71,0.00,,,0.00,WeatherCatV1.02B3,2013-01-23 06:01:00,
2013-01-23 01:06:00,10.3,2.8,30.11,West,281,0.0,0.0,71,0.00,,,0.00,WeatherCatV1.02B3,2013-01-23 06:06:00,
2013-01-23 01:11:00,10.1,2.9,30.11,West,281,0.0,0.0,72,0.00,,,0.00,WeatherCatV1.02B3,2013-01-23 06:11:00,
2013-01-23 01:16:00,10.0,3.1,30.11,WNW,284,0.0,0.0,73,0.00,,,0.00,WeatherCatV1.02B3,2013-01-23 06:16:00,
2013-01-23 01:21:00,9.8,2.9,30.11,WNW,285,0.0,0.0,73,0.00,,,0.00,WeatherCatV1.02B3,2013-01-23 06:21:00,
2013-01-23 01:26:00,9.8,2.9,30.11,WNW,285,0.0,0.0,73,0.00,,,0.00,WeatherCatV1.02B3,2013-01-23 06:26:00,
2013-01-23 01:31:00,9.6,2.7,30.11,WNW,285,0.0,0.0,73,0.00,,,0.00,WeatherCatV1.02B3,2013-01-23 06:31:00,
2013-01-23 01:36:00,9.5,2.6,30.11,WNW,285,0.0,0.0,73,0.00,,,0.00,WeatherCatV1.02B3,2013-01-23 06:36:00,
2013-01-23 01:41:00,9.4,2.8,30.11,WNW,285,0.0,0.0,74,0.00,,,0.00,WeatherCatV1.02B3,2013-01-23 06:41:00,
2013-01-23 01:46:00,9.3,3.0,30.12,West,271,0.0,0.0,75,0.00,,,0.00,WeatherCatV1.02B3,2013-01-23 06:46:00,
2013-01-23 01:51:00,9.3,3.0,30.12,West,279,0.0,0.0,75,0.00,,,0.00,WeatherCatV1.02B3,2013-01-23 06:51:00,
2013-01-23 01:56:00,9.3,3.0,30.12,West,281,0.0,0.0,75,0.00,,,0.00,WeatherCatV1.02B3,2013-01-23 06:56:00,
2013-01-23 02:01:00,9.3,3.3,30.12,West,281,0.0,0.0,76,0.00,,,0.00,WeatherCatV1.02B3,2013-01-23 07:01:00,
2013-01-23 02:06:00,9.2,2.9,30.12,West,280,0.0,0.0,75,0.00,,,0.00,WeatherCatV1.02B3,2013-01-23 07:06:00,
2013-01-23 02:11:00,9.1,2.2,30.12,West,280,0.0,0.0,73,0.00,,,0.00,WeatherCatV1.02B3,2013-01-23 07:11:00,
2013-01-23 02:16:00,9.1,1.6,30.13,WNW,285,0.0,0.0,71,0.00,,,0.00,WeatherCatV1.02B3,2013-01-23 07:16:00,
2013-01-23 02:21:00,9.2,1.1,30.13,West,279,0.0,0.0,69,0.00,,,0.00,WeatherCatV1.02B3,2013-01-23 07:21:00,
2013-01-23 02:26:00,9.1,0.7,30.13,SSW,209,0.0,0.0,68,0.00,,,0.00,WeatherCatV1.02B3,2013-01-23 07:26:00,
2013-01-23 02:31:00,9.1,0.7,30.13,WSW,258,0.0,0.0,68,0.00,,,0.00,WeatherCatV1.02B3,2013-01-23 07:31:00,
2013-01-23 02:36:00,9.0,0.3,30.13,SSW,206,0.0,0.0,67,0.00,,,0.00,WeatherCatV1.02B3,2013-01-23 07:36:00,
2013-01-23 02:41:00,9.0,0.0,30.14,WNW,283,0.0,0.0,66,0.00,,,0.00,WeatherCatV1.02B3,2013-01-23 07:41:00,
2013-01-23 02:46:00,8.9,-0.4,30.13,West,271,0.0,0.0,65,0.00,,,0.00,WeatherCatV1.02B3,2013-01-23 07:46:00,
2013-01-23 02:51:00,8.9,-0.8,30.13,West,277,0.0,0.0,64,0.00,,,0.00,WeatherCatV1.02B3,2013-01-23 07:51:00,
2013-01-23 02:56:00,8.8,-0.9,30.13,West,277,0.0,0.0,64,0.00,,,0.00,WeatherCatV1.02B3,2013-01-23 07:56:00,
2013-01-23 03:01:00,8.7,-0.9,30.13,SSW,204,0.0,0.0,64,0.00,,,0.00,WeatherCatV1.02B3,2013-01-23 08:01:00,
2013-01-23 03:06:00,8.6,-1.4,30.14,West,281,0.0,0.0,63,0.00,,,0.00,WeatherCatV1.02B3,2013-01-23 08:06:00,
2013-01-23 03:11:00,8.5,-1.5,30.14,SW,236,0.0,0.0,63,0.00,,,0.00,WeatherCatV1.02B3,2013-01-23 08:11:00,
2013-01-23 03:16:00,8.3,-1.7,30.14,SW,236,0.0,0.0,63,0.00,,,0.00,WeatherCatV1.02B3,2013-01-23 08:16:00,
2013-01-23 03:21:00,8.2,-1.8,30.14,SW,236,0.0,0.0,63,0.00,,,0.00,WeatherCatV1.02B3,2013-01-23 08:21:00,
2013-01-23 03:26:00,8.1,-1.9,30.13,WNW,284,0.0,0.0,63,0.00,,,0.00,WeatherCatV1.02B3,2013-01-23 08:26:00,
2013-01-23 03:31:00,8.0,-1.9,30.14,SW,225,0.0,0.0,63,0.00,,,0.00,WeatherCatV1.02B3,2013-01-23 08:31:00,
2013-01-23 03:36:00,7.8,-2.1,30.13,WNW,283,0.0,0.0,63,0.00,,,0.00,WeatherCatV1.02B3,2013-01-23 08:36:00,
2013-01-23 03:41:00,7.8,-2.1,30.13,West,265,0.0,0.0,63,0.00,,,0.00,WeatherCatV1.02B3,2013-01-23 08:41:00,
2013-01-23 03:46:00,7.7,-2.2,30.13,West,281,0.0,0.0,63,0.00,,,0.00,WeatherCatV1.02B3,2013-01-23 08:46:00,
2013-01-23 03:51:00,7.6,-2.3,30.14,West,265,0.0,0.0,63,0.00,,,0.00,WeatherCatV1.02B3,2013-01-23 08:51:00,
2013-01-23 03:56:00,7.6,-2.3,30.14,SW,215,0.0,0.0,63,0.00,,,0.00,WeatherCatV1.02B3,2013-01-23 08:56:00,
2013-01-23 04:01:00,7.5,-2.4,30.14,West,277,0.0,0.0,63,0.00,,,0.00,WeatherCatV1.02B3,2013-01-23 09:01:00,
2013-01-23 04:06:00,7.4,-2.5,30.14,SW,214,0.0,0.0,63,0.00,,,0.00,WeatherCatV1.02B3,2013-01-23 09:06:00,
2013-01-23 04:11:00,7.4,-2.5,30.14,SW,217,0.0,0.0,63,0.00,,,0.00,WeatherCatV1.02B3,2013-01-23 09:11:00,
2013-01-23 04:16:00,7.4,-2.5,30.14,West,273,0.0,0.0,63,0.00,,,0.00,WeatherCatV1.02B3,2013-01-23 09:16:00,
2013-01-23 04:21:00,7.4,-2.9,30.14,WSW,255,0.0,0.0,62,0.00,,,0.00,WeatherCatV1.02B3,2013-01-23 09:21:00,
2013-01-23 04:26:00,7.4,-2.5,30.14,WSW,245,0.0,0.0,63,0.00,,,0.00,WeatherCatV1.02B3,2013-01-23 09:26:00,
2013-01-23 04:31:00,7.3,-2.6,30.14,WSW,240,0.0,0.0,63,0.00,,,0.00,WeatherCatV1.02B3,2013-01-23 09:31:00,
2013-01-23 04:36:00,7.2,-2.7,30.14,WNW,301,0.0,0.0,63,0.00,,,0.00,WeatherCatV1.02B3,2013-01-23 09:36:00,
2013-01-23 04:41:00,7.2,-3.0,30.14,WSW,249,0.0,0.0,62,0.00,,,0.00,WeatherCatV1.02B3,2013-01-23 09:41:00,
2013-01-23 04:46:00,7.1,-2.8,30.14,West,273,0.0,0.0,63,0.00,,,0.00,WeatherCatV1.02B3,2013-01-23 09:46:00,
2013-01-23 04:51:00,7.0,-2.9,30.14,SSW,209,0.0,0.0,63,0.00,,,0.00,WeatherCatV1.02B3,2013-01-23 09:51:00,
2013-01-23 04:56:00,7.0,-2.9,30.14,WNW,295,0.0,0.0,63,0.00,,,0.00,WeatherCatV1.02B3,2013-01-23 09:56:00,
2013-01-23 05:01:00,6.9,-3.3,30.14,SW,223,0.0,0.0,62,0.00,,,0.00,WeatherCatV1.02B3,2013-01-23 10:01:00,
2013-01-23 05:06:00,6.9,-3.3,30.15,WNW,293,0.0,0.0,62,0.00,,,0.00,WeatherCatV1.02B3,2013-01-23 10:06:00,
2013-01-23 05:11:00,7.0,-3.2,30.14,WSW,255,0.0,0.0,62,0.00,,,0.00,WeatherCatV1.02B3,2013-01-23 10:11:00,
2013-01-23 05:16:00,7.0,-3.2,30.15,WSW,257,0.0,0.0,62,0.00,,,0.00,WeatherCatV1.02B3,2013-01-23 10:16:00,
2013-01-23 05:21:00,7.0,-3.2,30.15,SW,236,0.0,0.0,62,0.00,,,0.00,WeatherCatV1.02B3,2013-01-23 10:21:00,
2013-01-23 05:26:00,6.9,-3.3,30.15,West,276,0.0,0.0,62,0.00,,,0.00,WeatherCatV1.02B3,2013-01-23 10:26:00,
2013-01-23 05:31:00,6.9,-3.3,30.15,SW,232,0.0,0.0,62,0.00,,,0.00,WeatherCatV1.02B3,2013-01-23 10:31:00,
2013-01-23 05:36:00,6.8,-3.4,30.15,WSW,255,0.0,0.0,62,0.00,,,0.00,WeatherCatV1.02B3,2013-01-23 10:36:00,
2013-01-23 05:41:00,6.7,-3.5,30.15,SW,223,0.0,0.0,62,0.00,,,0.00,WeatherCatV1.02B3,2013-01-23 10:41:00,
2013-01-23 05:46:00,6.7,-3.5,30.15,WNW,294,0.0,0.0,62,0.00,,,0.00,WeatherCatV1.02B3,2013-01-23 10:46:00,
2013-01-23 05:51:00,6.7,-3.5,30.16,West,281,0.0,0.0,62,0.00,,,0.00,WeatherCatV1.02B3,2013-01-23 10:51:00,
2013-01-23 05:56:00,6.7,-3.9,30.16,West,271,0.0,0.0,61,0.00,,,0.00,WeatherCatV1.02B3,2013-01-23 10:56:00,
2013-01-23 06:01:00,6.7,-3.9,30.16,WSW,257,0.0,0.0,61,0.00,,,0.00,WeatherCatV1.02B3,2013-01-23 11:01:00,
2013-01-23 06:06:00,6.7,-3.9,30.16,WNW,287,0.0,0.0,61,0.00,,,0.00,WeatherCatV1.02B3,2013-01-23 11:06:00,
2013-01-23 06:11:00,6.6,-4.0,30.16,WSW,257,0.0,0.0,61,0.00,,,0.00,WeatherCatV1.02B3,2013-01-23 11:11:00,
2013-01-23 06:16:00,6.6,-4.3,30.16,West,277,0.0,0.0,60,0.00,,,0.00,WeatherCatV1.02B3,2013-01-23 11:16:00,
2013-01-23 06:21:00,6.5,-4.7,30.16,WSW,239,0.0,0.0,59,0.00,,,0.00,WeatherCatV1.02B3,2013-01-23 11:21:00,
2013-01-23 06:26:00,6.4,-4.8,30.16,WSW,242,0.0,0.0,59,0.00,,,0.00,WeatherCatV1.02B3,2013-01-23 11:26:00,
2013-01-23 06:31:00,6.4,-4.8,30.16,WNW,293,0.0,0.0,59,0.00,,,0.00,WeatherCatV1.02B3,2013-01-23 11:31:00,
2013-01-23 06:36:00,6.4,-4.8,30.16,West,267,0.0,0.0,59,0.00,,,0.00,WeatherCatV1.02B3,2013-01-23 11:36:00,
2013-01-23 06:41:00,6.3,-4.9,30.16,NW,319,0.0,0.0,59,0.00,,,0.00,WeatherCatV1.02B3,2013-01-23 11:41:00,
2013-01-23 06:46:00,6.2,-5.0,30.16,SW,236,0.0,0.0,59,0.00,,,0.00,WeatherCatV1.02B3,2013-01-23 11:46:00,
2013-01-23 06:51:00,6.2,-5.4,30.16,WSW,240,0.0,0.0,58,0.00,,,0.00,WeatherCatV1.02B3,2013-01-23 11:51:00,
2013-01-23 06:56:00,6.2,-5.4,30.16,SSW,204,0.0,0.0,58,0.00,,,0.00,WeatherCatV1.02B3,2013-01-23 11:56:00,
2013-01-23 07:01:00,6.2,-5.4,30.16,West,263,0.0,0.0,58,0.00,,,0.00,WeatherCatV1.02B3,2013-01-23 12:01:00,
2013-01-23 07:06:00,6.1,-5.5,30.16,South,188,0.0,0.0,58,0.00,,,0.00,WeatherCatV1.02B3,2013-01-23 12:06:00,
2013-01-23 07:11:00,6.0,-5.2,30.17,SSW,205,0.0,0.0,59,0.00,,,0.00,WeatherCatV1.02B3,2013-01-23 12:11:00,
2013-01-23 07:16:00,6.0,-5.2,30.17,WSW,246,0.0,0.0,59,0.00,,,0.00,WeatherCatV1.02B3,2013-01-23 12:16:00,
2013-01-23 07:21:00,5.9,-5.3,30.17,WNW,298,0.0,0.0,59,0.00,,,0.00,WeatherCatV1.02B3,2013-01-23 12:21:00,
2013-01-23 07:26:00,5.9,-5.3,30.17,SW,234,0.0,0.0,59,0.00,,,0.00,WeatherCatV1.02B3,2013-01-23 12:26:00,
2013-01-23 07:31:00,5.8,-5.1,30.17,WSW,250,0.0,0.0,60,0.00,,,0.00,WeatherCatV1.02B3,2013-01-23 12:31:00,
2013-01-23 07:37:00,5.8,-5.4,30.17,WNW,285,0.0,0.0,59,0.00,,,0.00,WeatherCatV1.02B3,2013-01-23 12:37:00,
2013-01-23 07:42:00,5.9,-5.3,30.17,WNW,288,0.0,0.0,59,0.00,,,0.00,WeatherCatV1.02B3,2013-01-23 12:42:00,
2013-01-23 07:47:00,6.1,-5.1,30.17,WNW,295,0.0,0.0,59,0.00,,,0.00,WeatherCatV1.02B3,2013-01-23 12:47:00,
2013-01-23 07:52:00,6.2,-5.4,30.18,WNW,289,0.0,0.0,58,0.00,,,0.00,WeatherCatV1.02B3,2013-01-23 12:52:00,
2013-01-23 07:57:00,6.3,-5.6,30.18,WSW,252,0.0,0.0,57,0.00,,,0.00,WeatherCatV1.02B3,2013-01-23 12:57:00,
2013-01-23 08:02:00,6.4,-5.2,30.18,West,276,0.0,0.0,58,0.00,,,0.00,WeatherCatV1.02B3,2013-01-23 13:02:00,
2013-01-23 08:07:00,6.5,-5.4,30.18,WNW,300,0.0,0.0,57,0.00,,,0.00,WeatherCatV1.02B3,2013-01-23 13:07:00,
2013-01-23 08:12:00,6.6,-5.4,30.18,West,273,0.0,0.0,57,0.00,,,0.00,WeatherCatV1.02B3,2013-01-23 13:12:00,
2013-01-23 08:17:00,6.7,-5.3,30.19,West,276,0.0,0.0,57,0.00,,,0.00,WeatherCatV1.02B3,2013-01-23 13:17:00,
2013-01-23 08:22:00,6.8,-5.5,30.18,West,270,0.0,0.0,56,0.00,,,0.00,WeatherCatV1.02B3,2013-01-23 13:22:00,
2013-01-23 08:27:00,6.9,-5.1,30.18,West,269,0.0,0.0,57,0.00,,,0.00,WeatherCatV1.02B3,2013-01-23 13:27:00,
2013-01-23 08:32:00,7.0,-5.0,30.18,South,188,0.0,0.0,57,0.00,,,0.00,WeatherCatV1.02B3,2013-01-23 13:32:00,
2013-01-23 08:37:00,7.1,-5.2,30.18,West,275,0.0,0.0,56,0.00,,,0.00,WeatherCatV1.02B3,2013-01-23 13:37:00,
2013-01-23 08:43:00,7.3,-5.1,30.18,West,270,0.0,0.0,56,0.00,,,0.00,WeatherCatV1.02B3,2013-01-23 13:43:00,
2013-01-23 08:48:00,7.4,-5.3,30.18,West,277,0.0,0.0,55,0.00,,,0.00,WeatherCatV1.02B3,2013-01-23 13:48:00,
2013-01-23 08:53:00,7.6,-5.2,30.18,West,281,0.0,0.0,55,0.00,,,0.00,WeatherCatV1.02B3,2013-01-23 13:53:00,
2013-01-23 08:58:00,7.8,-5.0,30.18,West,273,0.0,0.0,55,0.00,,,0.00,WeatherCatV1.02B3,2013-01-23 13:58:00,
2013-01-23 09:03:00,8.0,-5.2,30.19,WNW,284,0.0,0.0,54,0.00,,,0.00,WeatherCatV1.02B3,2013-01-23 14:03:00,
2013-01-23 09:08:00,8.0,-5.2,30.18,West,281,0.0,0.0,54,0.00,,,0.00,WeatherCatV1.02B3,2013-01-23 14:08:00,
2013-01-23 09:13:00,8.2,-5.0,30.18,WNW,284,0.0,0.0,54,0.00,,,0.00,WeatherCatV1.02B3,2013-01-23 14:13:00,
2013-01-23 09:18:00,8.1,-5.1,30.18,SW,232,0.0,0.0,54,0.00,,,0.00,WeatherCatV1.02B3,2013-01-23 14:18:00,
2013-01-23 09:23:00,8.3,-4.9,30.18,West,272,0.0,0.0,54,0.00,,,0.00,WeatherCatV1.02B3,2013-01-23 14:23:00,
2013-01-23 09:28:00,8.6,-4.6,30.18,West,278,0.0,0.0,54,0.00,,,0.00,WeatherCatV1.02B3,2013-01-23 14:28:00,
2013-01-23 09:33:00,8.6,-5.0,30.18,West,275,0.0,0.0,53,0.00,,,0.00,WeatherCatV1.02B3,2013-01-23 14:33:00,
2013-01-23 09:38:00,8.6,-5.0,30.18,WNW,292,0.0,0.0,53,0.00,,,0.00,WeatherCatV1.02B3,2013-01-23 14:38:00,
2013-01-23 09:43:00,8.9,-4.7,30.18,WNW,284,0.0,0.0,53,0.00,,,0.00,WeatherCatV1.02B3,2013-01-23 14:43:00,
2013-01-23 09:48:00,9.0,-5.0,30.18,West,273,0.0,1.0,52,0.00,,,0.00,WeatherCatV1.02B3,2013-01-23 14:48:00,
2013-01-23 09:55:00,9.1,-4.9,30.18,WNW,288,0.0,0.0,52,0.00,,,0.00,WeatherCatV1.02B3,2013-01-23 14:55:00,
2013-01-23 10:00:00,9.4,-4.6,30.18,WNW,286,0.0,0.0,52,0.00,,,0.00,WeatherCatV1.02B3,2013-01-23 15:00:00,
2013-01-23 10:05:00,9.8,-4.3,30.18,West,266,0.0,0.0,52,0.00,,,0.00,WeatherCatV1.02B3,2013-01-23 15:05:00,
2013-01-23 10:10:00,9.8,-4.7,30.18,West,278,0.0,0.0,51,0.00,,,0.00,WeatherCatV1.02B3,2013-01-23 15:10:00,
2013-01-23 10:15:00,9.8,-4.7,30.18,WNW,288,0.0,0.0,51,0.00,,,0.00,WeatherCatV1.02B3,2013-01-23 15:15:00,
2013-01-23 10:20:00,9.9,-4.6,30.17,WNW,300,0.0,0.0,51,0.00,,,0.00,WeatherCatV1.02B3,2013-01-23 15:20:00,
2013-01-23 10:25:00,10.0,-4.5,30.18,West,275,0.0,0.0,51,0.00,,,0.00,WeatherCatV1.02B3,2013-01-23 15:25:00,
2013-01-23 10:30:00,10.1,-4.0,30.17,WNW,290,0.0,0.0,52,0.00,,,0.00,WeatherCatV1.02B3,2013-01-23 15:30:00,
2013-01-23 10:35:00,10.0,-4.5,30.17,NW,308,0.0,0.0,51,0.00,,,0.00,WeatherCatV1.02B3,2013-01-23 15:35:00,
2013-01-23 10:40:00,10.1,-4.4,30.17,WSW,256,0.0,0.0,51,0.00,,,0.00,WeatherCatV1.02B3,2013-01-23 15:40:00,
2013-01-23 10:45:00,10.0,-4.9,30.17,WNW,293,0.0,0.0,50,0.00,,,0.00,WeatherCatV1.02B3,2013-01-23 15:45:00,
2013-01-23 10:50:00,10.1,-5.2,30.17,NW,309,0.0,0.0,49,0.00,,,0.00,WeatherCatV1.02B3,2013-01-23 15:50:00,
2013-01-23 10:55:00,10.2,-4.7,30.17,NW,315,0.0,0.0,50,0.00,,,0.00,WeatherCatV1.02B3,2013-01-23 15:55:00,
2013-01-23 11:01:00,10.3,-5.0,30.16,WNW,287,0.0,0.0,49,0.00,,,0.00,WeatherCatV1.02B3,2013-01-23 16:01:00,
2013-01-23 11:06:00,10.4,-4.9,30.16,NNW,327,0.0,0.0,49,0.00,,,0.00,WeatherCatV1.02B3,2013-01-23 16:06:00,
2013-01-23 11:12:00,10.5,-5.3,30.16,WNW,286,0.0,0.0,48,0.00,,,0.00,WeatherCatV1.02B3,2013-01-23 16:12:00,
2013-01-23 11:17:00,10.7,-5.1,30.16,West,269,0.0,0.0,48,0.00,,,0.00,WeatherCatV1.02B3,2013-01-23 16:17:00,
2013-01-23 11:24:00,10.8,-5.0,30.15,West,275,0.0,0.0,48,0.00,,,0.00,WeatherCatV1.02B3,2013-01-23 16:24:00,
2013-01-23 11:29:00,11.0,-4.8,30.15,WNW,292,0.0,0.0,48,0.00,,,0.00,WeatherCatV1.02B3,2013-01-23 16:29:00,
2013-01-23 11:34:00,10.6,-6.1,30.15,West,270,0.0,0.0,46,0.00,,,0.00,WeatherCatV1.02B3,2013-01-23 16:34:00,
2013-01-23 11:39:00,10.2,-6.0,30.15,WSW,250,0.0,0.0,47,0.00,,,0.00,WeatherCatV1.02B3,2013-01-23 16:39:00,
2013-01-23 11:44:00,10.6,-5.6,30.15,WNW,286,0.0,0.0,47,0.00,,,0.00,WeatherCatV1.02B3,2013-01-23 16:44:00,
2013-01-23 11:49:00,10.5,-6.6,30.14,WNW,285,0.0,0.0,45,0.00,,,0.00,WeatherCatV1.02B3,2013-01-23 16:49:00,
2013-01-23 11:54:00,10.7,-6.0,30.14,WNW,282,0.0,0.0,46,0.00,,,0.00,WeatherCatV1.02B3,2013-01-23 16:54:00,
2013-01-23 11:59:00,11.2,-5.1,30.13,WNW,290,0.0,4.0,47,0.00,,,0.00,WeatherCatV1.02B3,2013-01-23 16:59:00,
2013-01-23 12:04:00,11.3,-5.4,30.13,West,279,0.0,2.0,46,0.00,,,0.00,WeatherCatV1.02B3,2013-01-23 17:04:00,
2013-01-23 12:09:00,11.3,-5.0,30.13,West,259,0.0,0.0,47,0.00,,,0.00,WeatherCatV1.02B3,2013-01-23 17:09:00,
2013-01-23 12:14:00,11.7,-4.2,30.13,NW,325,0.0,0.0,48,0.00,,,0.00,WeatherCatV1.02B3,2013-01-23 17:14:00,
2013-01-23 12:19:00,12.0,-4.3,30.13,West,267,0.0,0.0,47,0.00,,,0.00,WeatherCatV1.02B3,2013-01-23 17:19:00,
2013-01-23 12:24:00,11.8,-4.9,30.13,WNW,292,0.0,0.0,46,0.00,,,0.00,WeatherCatV1.02B3,2013-01-23 17:24:00,
2013-01-23 12:29:00,11.8,-4.9,30.13,WSW,257,0.0,0.0,46,0.00,,,0.00,WeatherCatV1.02B3,2013-01-23 17:29:00,
2013-01-23 12:34:00,12.1,-4.7,30.12,West,281,0.0,0.0,46,0.00,,,0.00,WeatherCatV1.02B3,2013-01-23 17:34:00,
2013-01-23 12:39:00,12.5,-4.3,30.12,NW,304,0.0,0.0,46,0.00,,,0.00,WeatherCatV1.02B3,2013-01-23 17:39:00,
2013-01-23 12:44:00,12.4,-5.3,30.12,WNW,302,0.0,0.0,44,0.00,,,0.00,WeatherCatV1.02B3,2013-01-23 17:44:00,
2013-01-23 12:49:00,11.9,-6.2,30.12,WNW,285,0.0,0.0,43,0.00,,,0.00,WeatherCatV1.02B3,2013-01-23 17:49:00,
2013-01-23 12:54:00,11.4,-7.2,30.12,West,265,0.0,0.0,42,0.00,,,0.00,WeatherCatV1.02B3,2013-01-23 17:54:00,
2013-01-23 12:59:00,11.7,-6.0,30.12,West,259,0.0,0.0,44,0.00,,,0.00,WeatherCatV1.02B3,2013-01-23 17:59:00,
2013-01-23 13:04:00,11.6,-6.5,30.11,WNW,302,0.0,0.0,43,0.00,,,0.00,WeatherCatV1.02B3,2013-01-23 18:04:00,
2013-01-23 13:09:00,11.6,-7.0,30.11,WNW,291,0.0,0.0,42,0.00,,,0.00,WeatherCatV1.02B3,2013-01-23 18:09:00,
2013-01-23 13:14:00,11.4,-7.2,30.11,SW,217,0.0,0.0,42,0.00,,,0.00,WeatherCatV1.02B3,2013-01-23 18:14:00,
2013-01-23 13:19:00,11.1,-7.5,30.11,WNW,286,0.0,0.0,42,0.00,,,0.00,WeatherCatV1.02B3,2013-01-23 18:19:00,
2013-01-23 13:24:00,11.4,-6.7,30.11,West,277,0.0,0.0,43,0.00,,,0.00,WeatherCatV1.02B3,2013-01-23 18:24:00,
2013-01-23 13:29:00,12.4,-5.3,30.11,West,270,0.0,0.0,44,0.00,,,0.00,WeatherCatV1.02B3,2013-01-23 18:29:00,
2013-01-23 13:34:00,13.1,-4.7,30.11,West,281,0.0,0.0,44,0.00,,,0.00,WeatherCatV1.02B3,2013-01-23 18:34:00,
2013-01-23 13:39:00,13.3,-5.9,30.11,WNW,296,0.0,0.0,41,0.00,,,0.00,WeatherCatV1.02B3,2013-01-23 18:39:00,
2013-01-23 13:44:00,13.6,-5.7,30.11,SSW,213,0.0,0.0,41,0.00,,,0.00,WeatherCatV1.02B3,2013-01-23 18:44:00,
2013-01-23 13:49:00,14.1,-4.7,30.11,West,279,0.0,0.0,42,0.00,,,0.00,WeatherCatV1.02B3,2013-01-23 18:49:00,
2013-01-23 13:54:00,13.8,-6.5,30.11,WNW,295,0.0,0.0,39,0.00,,,0.00,WeatherCatV1.02B3,2013-01-23 18:54:00,
2013-01-23 13:59:00,13.6,-5.7,30.11,WNW,285,0.0,0.0,41,0.00,,,0.00,WeatherCatV1.02B3,2013-01-23 18:59:00,
2013-01-23 14:04:00,13.6,-6.7,30.12,WSW,257,0.0,0.0,39,0.00,,,0.00,WeatherCatV1.02B3,2013-01-23 19:04:00,
2013-01-23 14:09:00,13.4,-5.9,30.11,NNW,330,0.0,0.0,41,0.00,,,0.00,WeatherCatV1.02B3,2013-01-23 19:09:00,
2013-01-23 14:14:00,13.4,-6.4,30.11,WSW,256,0.0,0.0,40,0.00,,,0.00,WeatherCatV1.02B3,2013-01-23 19:14:00,
2013-01-23 14:19:00,13.5,-5.8,30.11,West,277,0.0,0.0,41,0.00,,,0.00,WeatherCatV1.02B3,2013-01-23 19:19:00,
2013-01-23 14:24:00,13.6,-5.7,30.12,WNW,290,1.0,1.0,41,0.00,,,0.00,WeatherCatV1.02B3,2013-01-23 19:24:00,
2013-01-23 14:29:00,13.9,-5.4,30.12,WNW,298,0.0,0.0,41,0.00,,,0.00,WeatherCatV1.02B3,2013-01-23 19:29:00,
2013-01-23 14:34:00,13.9,-6.4,30.12,WNW,288,0.0,0.0,39,0.00,,,0.00,WeatherCatV1.02B3,2013-01-23 19:34:00,
2013-01-23 14:39:00,13.6,-6.2,30.12,NNW,333,0.0,0.0,40,0.00,,,0.00,WeatherCatV1.02B3,2013-01-23 19:39:00,
2013-01-23 14:44:00,13.4,-6.9,30.12,West,280,0.0,0.0,39,0.00,,,0.00,WeatherCatV1.02B3,2013-01-23 19:44:00,
2013-01-23 14:49:00,13.1,-7.2,30.12,West,278,0.0,1.0,39,0.00,,,0.00,WeatherCatV1.02B3,2013-01-23 19:49:00,
2013-01-23 14:54:00,13.0,-6.7,30.13,WNW,296,0.0,0.0,40,0.00,,,0.00,WeatherCatV1.02B3,2013-01-23 19:54:00,
2013-01-23 14:59:00,12.8,-6.9,30.12,WSW,257,0.0,2.0,40,0.00,,,0.00,WeatherCatV1.02B3,2013-01-23 19:59:00,
2013-01-23 15:04:00,12.8,-6.9,30.13,WNW,294,0.0,1.0,40,0.00,,,0.00,WeatherCatV1.02B3,2013-01-23 20:04:00,
2013-01-23 15:09:00,12.5,-7.7,30.13,West,280,0.0,1.0,39,0.00,,,0.00,WeatherCatV1.02B3,2013-01-23 20:09:00,
2013-01-23 15:14:00,12.2,-8.0,30.13,WNW,294,0.0,10.0,39,0.00,,,0.00,WeatherCatV1.02B3,2013-01-23 20:14:00,
2013-01-23 15:19:00,12.2,-7.5,30.13,WNW,290,0.0,0.0,40,0.00,,,0.00,WeatherCatV1.02B3,2013-01-23 20:19:00,
2013-01-23 15:24:00,12.3,-7.4,30.13,NW,312,0.0,1.0,40,0.00,,,0.00,WeatherCatV1.02B3,2013-01-23 20:24:00,
2013-01-23 15:29:00,11.9,-7.7,30.12,WNW,302,0.0,1.0,40,0.00,,,0.00,WeatherCatV1.02B3,2013-01-23 20:29:00,
2013-01-23 15:34:00,11.9,-7.7,30.12,WSW,256,0.0,0.0,40,0.00,,,0.00,WeatherCatV1.02B3,2013-01-23 20:34:00,
2013-01-23 15:39:00,11.7,-8.4,30.12,WNW,286,0.0,0.0,39,0.00,,,0.00,WeatherCatV1.02B3,2013-01-23 20:39:00,
2013-01-23 15:44:00,11.7,-7.9,30.12,NW,321,0.0,0.0,40,0.00,,,0.00,WeatherCatV1.02B3,2013-01-23 20:44:00,
2013-01-23 15:49:00,11.7,-7.9,30.12,WNW,290,0.0,0.0,40,0.00,,,0.00,WeatherCatV1.02B3,2013-01-23 20:49:00,
2013-01-23 15:54:00,11.5,-8.6,30.13,WNW,291,0.0,0.0,39,0.00,,,0.00,WeatherCatV1.02B3,2013-01-23 20:54:00,
2013-01-23 15:59:00,11.5,-8.1,30.13,West,265,0.0,0.0,40,0.00,,,0.00,WeatherCatV1.02B3,2013-01-23 20:59:00,
2013-01-23 16:04:00,11.4,-8.2,30.13,WNW,294,0.0,0.0,40,0.00,,,0.00,WeatherCatV1.02B3,2013-01-23 21:04:00,
2013-01-23 16:09:00,11.5,-8.1,30.14,West,275,0.0,0.0,40,0.00,,,0.00,WeatherCatV1.02B3,2013-01-23 21:09:00,
2013-01-23 16:14:00,11.4,-8.7,30.13,WSW,250,0.0,0.0,39,0.00,,,0.00,WeatherCatV1.02B3,2013-01-23 21:14:00,
2013-01-23 16:19:00,11.3,-8.8,30.13,West,269,0.0,0.0,39,0.00,,,0.00,WeatherCatV1.02B3,2013-01-23 21:19:00,
2013-01-23 16:24:00,11.2,-8.4,30.13,NNW,346,0.0,0.0,40,0.00,,,0.00,WeatherCatV1.02B3,2013-01-23 21:24:00,
2013-01-23 16:29:00,11.1,-8.4,30.13,NW,325,0.0,0.0,40,0.00,,,0.00,WeatherCatV1.02B3,2013-01-23 21:29:00,
2013-01-23 16:34:00,11.0,-8.5,30.13,West,281,0.0,0.0,40,0.00,,,0.00,WeatherCatV1.02B3,2013-01-23 21:34:00,
2013-01-23 16:39:00,10.9,-8.1,30.13,WSW,258,0.0,0.0,41,0.00,,,0.00,WeatherCatV1.02B3,2013-01-23 21:39:00,
2013-01-23 16:44:00,10.9,-8.1,30.13,West,269,0.0,0.0,41,0.00,,,0.00,WeatherCatV1.02B3,2013-01-23 21:44:00,
2013-01-23 16:49:00,10.7,-8.8,30.14,WNW,286,0.0,0.0,40,0.00,,,0.00,WeatherCatV1.02B3,2013-01-23 21:49:00,
2013-01-23 16:54:00,10.7,-8.8,30.14,West,281,0.0,0.0,40,0.00,,,0.00,WeatherCatV1.02B3,2013-01-23 21:54:00,
2013-01-23 17:00:00,10.6,-8.4,30.14,WNW,291,0.0,0.0,41,0.00,,,0.00,WeatherCatV1.02B3,2013-01-23 22:00:00,
2013-01-23 17:05:00,10.4,-8.6,30.14,West,266,0.0,0.0,41,0.00,,,0.00,WeatherCatV1.02B3,2013-01-23 22:05:00,
2013-01-23 17:10:00,10.4,-9.1,30.14,WNW,291,0.0,0.0,40,0.00,,,0.00,WeatherCatV1.02B3,2013-01-23 22:10:00,
2013-01-23 17:15:00,10.3,-8.7,30.14,WNW,296,0.0,0.0,41,0.00,,,0.00,WeatherCatV1.02B3,2013-01-23 22:15:00,
2013-01-23 17:21:00,10.2,-8.8,30.14,WNW,286,0.0,0.0,41,0.00,,,0.00,WeatherCatV1.02B3,2013-01-23 22:21:00,
2013-01-23 17:26:00,10.0,-8.5,30.15,WNW,300,0.0,0.0,42,0.00,,,0.00,WeatherCatV1.02B3,2013-01-23 22:26:00,
2013-01-23 17:31:00,9.8,-8.6,30.15,West,279,0.0,0.0,42,0.00,,,0.00,WeatherCatV1.02B3,2013-01-23 22:31:00,
2013-01-23 17:36:00,9.7,-8.7,30.15,WNW,287,0.0,0.0,42,0.00,,,0.00,WeatherCatV1.02B3,2013-01-23 22:36:00,
2013-01-23 17:41:00,9.7,-8.3,30.15,WNW,287,0.0,0.0,43,0.00,,,0.00,WeatherCatV1.02B3,2013-01-23 22:41:00,
2013-01-23 17:46:00,9.6,-7.9,30.15,WNW,287,0.0,0.0,44,0.00,,,0.00,WeatherCatV1.02B3,2013-01-23 22:46:00,
2013-01-23 17:52:00,9.4,-7.6,30.15,NW,304,0.0,0.0,45,0.00,,,0.00,WeatherCatV1.02B3,2013-01-23 22:52:00,
2013-01-23 17:57:00,9.4,-8.1,30.15,WNW,286,0.0,0.0,44,0.00,,,0.00,WeatherCatV1.02B3,2013-01-23 22:57:00,
2013-01-23 18:02:00,9.4,-8.1,30.15,WNW,286,0.0,0.0,44,0.00,,,0.00,WeatherCatV1.02B3,2013-01-23 23:02:00,
2013-01-23 18:07:00,9.4,-8.1,30.15,WNW,286,0.0,0.0,44,0.00,,,0.00,WeatherCatV1.02B3,2013-01-23 23:07:00,
2013-01-23 18:12:00,9.3,-7.7,30.16,West,271,0.0,0.0,45,0.00,,,0.00,WeatherCatV1.02B3,2013-01-23 23:12:00,
2013-01-23 18:17:00,9.3,-8.2,30.16,WNW,282,0.0,0.0,44,0.00,,,0.00,WeatherCatV1.02B3,2013-01-23 23:17:00,
2013-01-23 18:22:00,9.2,-8.2,30.16,West,276,0.0,0.0,44,0.00,,,0.00,WeatherCatV1.02B3,2013-01-23 23:22:00,
2013-01-23 18:28:00,9.2,-8.2,30.16,WNW,282,0.0,0.0,44,0.00,,,0.00,WeatherCatV1.02B3,2013-01-23 23:28:00,
2013-01-23 18:33:00,9.1,-7.9,30.16,West,259,0.0,0.0,45,0.00,,,0.00,WeatherCatV1.02B3,2013-01-23 23:33:00,
2013-01-23 18:38:00,9.0,-7.5,30.16,West,259,0.0,0.0,46,0.00,,,0.00,WeatherCatV1.02B3,2013-01-23 23:38:00,
2013-01-23 18:44:00,8.7,-7.4,30.16,West,259,0.0,0.0,47,0.00,,,0.00,WeatherCatV1.02B3,2013-01-23 23:44:00,
2013-01-23 18:50:00,8.5,-7.5,30.16,West,274,0.0,0.0,47,0.00,,,0.00,WeatherCatV1.02B3,2013-01-23 23:50:00,
2013-01-23 18:55:00,8.6,-7.5,30.16,WNW,294,0.0,0.0,47,0.00,,,0.00,WeatherCatV1.02B3,2013-01-23 23:55:00,
2013-01-23 19:01:00,8.6,-7.0,30.16,WNW,288,0.0,0.0,48,0.00,,,0.00,WeatherCatV1.02B3,2013-01-24 00:01:00,
2013-01-23 19:06:00,8.6,-7.0,30.16,WSW,258,0.0,0.0,48,0.00,,,0.00,WeatherCatV1.02B3,2013-01-24 00:06:00,
2013-01-23 19:11:00,8.5,-7.1,30.16,WNW,292,0.0,0.0,48,0.00,,,0.00,WeatherCatV1.02B3,2013-01-24 00:11:00,
2013-01-23 19:16:00,8.5,-7.5,30.17,West,269,0.0,0.0,47,0.00,,,0.00,WeatherCatV1.02B3,2013-01-24 00:16:00,
2013-01-23 19:21:00,8.4,-7.2,30.17,SW,236,0.0,0.0,48,0.00,,,0.00,WeatherCatV1.02B3,2013-01-24 00:21:00,
2013-01-23 19:26:00,8.3,-7.7,30.17,West,275,0.0,0.0,47,0.00,,,0.00,WeatherCatV1.02B3,2013-01-24 00:26:00,
2013-01-23 19:31:00,8.2,-7.4,30.17,West,273,0.0,0.0,48,0.00,,,0.00,WeatherCatV1.02B3,2013-01-24 00:31:00,
2013-01-23 19:36:00,8.2,-7.4,30.17,West,269,0.0,0.0,48,0.00,,,0.00,WeatherCatV1.02B3,2013-01-24 00:36:00,
2013-01-23 19:41:00,8.2,-7.4,30.17,WNW,290,0.0,0.0,48,0.00,,,0.00,WeatherCatV1.02B3,2013-01-24 00:41:00,
2013-01-23 19:46:00,8.1,-7.5,30.17,West,275,0.0,0.0,48,0.00,,,0.00,WeatherCatV1.02B3,2013-01-24 00:46:00,
2013-01-23 19:51:00,8.1,-7.5,30.17,West,280,0.0,0.0,48,0.00,,,0.00,WeatherCatV1.02B3,2013-01-24 00:51:00,
2013-01-23 19:56:00,8.1,-7.9,30.17,WNW,293,0.0,0.0,47,0.00,,,0.00,WeatherCatV1.02B3,2013-01-24 00:56:00,
2013-01-23 20:01:00,8.0,-8.0,30.17,West,280,0.0,0.0,47,0.00,,,0.00,WeatherCatV1.02B3,2013-01-24 01:01:00,
2013-01-23 20:06:00,7.9,-8.1,30.17,WNW,292,0.0,0.0,47,0.00,,,0.00,WeatherCatV1.02B3,2013-01-24 01:06:00,
2013-01-23 20:12:00,7.8,-8.2,30.17,SSE,154,0.0,0.0,47,0.00,,,0.00,WeatherCatV1.02B3,2013-01-24 01:12:00,
2013-01-23 20:17:00,7.8,-8.2,30.17,WNW,298,0.0,0.0,47,0.00,,,0.00,WeatherCatV1.02B3,2013-01-24 01:17:00,
2013-01-23 20:22:00,7.6,-8.4,30.17,WNW,287,0.0,0.0,47,0.00,,,0.00,WeatherCatV1.02B3,2013-01-24 01:22:00,
2013-01-23 20:27:00,7.5,-8.0,30.17,West,265,0.0,0.0,48,0.00,,,0.00,WeatherCatV1.02B3,2013-01-24 01:27:00,
2013-01-23 20:32:00,7.4,-8.6,30.17,West,271,0.0,0.0,47,0.00,,,0.00,WeatherCatV1.02B3,2013-01-24 01:32:00,
2013-01-23 20:37:00,7.3,-8.2,30.17,WNW,286,0.0,0.0,48,0.00,,,0.00,WeatherCatV1.02B3,2013-01-24 01:37:00,
2013-01-23 20:42:00,7.2,-8.3,30.17,West,281,0.0,0.0,48,0.00,,,0.00,WeatherCatV1.02B3,2013-01-24 01:42:00,
2013-01-23 20:47:00,7.2,-8.3,30.18,NW,309,0.0,0.0,48,0.00,,,0.00,WeatherCatV1.02B3,2013-01-24 01:47:00,
2013-01-23 20:52:00,7.1,-8.4,30.18,NW,326,0.0,0.0,48,0.00,,,0.00,WeatherCatV1.02B3,2013-01-24 01:52:00,
2013-01-23 20:57:00,7.1,-8.4,30.18,WSW,247,0.0,0.0,48,0.00,,,0.00,WeatherCatV1.02B3,2013-01-24 01:57:00,
2013-01-23 21:02:00,7.0,-8.5,30.18,WNW,290,0.0,0.0,48,0.00,,,0.00,WeatherCatV1.02B3,2013-01-24 02:02:00,
2013-01-23 21:07:00,6.9,-8.6,30.18,West,265,0.0,0.0,48,0.00,,,0.00,WeatherCatV1.02B3,2013-01-24 02:07:00,
2013-01-23 21:12:00,6.8,-8.3,30.18,West,265,0.0,0.0,49,0.00,,,0.00,WeatherCatV1.02B3,2013-01-24 02:12:00,
2013-01-23 21:17:00,6.6,-8.5,30.18,SSW,210,0.0,0.0,49,0.00,,,0.00,WeatherCatV1.02B3,2013-01-24 02:17:00,
2013-01-23 21:22:00,6.5,-8.5,30.18,West,279,0.0,0.0,49,0.00,,,0.00,WeatherCatV1.02B3,2013-01-24 02:22:00,
2013-01-23 21:27:00,6.5,-8.5,30.18,WNW,293,0.0,0.0,49,0.00,,,0.00,WeatherCatV1.02B3,2013-01-24 02:27:00,
2013-01-23 21:32:00,6.5,-8.5,30.18,WNW,290,0.0,0.0,49,0.00,,,0.00,WeatherCatV1.02B3,2013-01-24 02:32:00,
2013-01-23 21:37:00,6.4,-8.6,30.18,WNW,290,0.0,0.0,49,0.00,,,0.00,WeatherCatV1.02B3,2013-01-24 02:37:00,
2013-01-23 21:42:00,6.3,-8.3,30.18,WNW,290,0.0,0.0,50,0.00,,,0.00,WeatherCatV1.02B3,2013-01-24 02:42:00,
2013-01-23 21:47:00,6.2,-8.4,30.18,WNW,290,0.0,0.0,50,0.00,,,0.00,WeatherCatV1.02B3,2013-01-24 02:47:00,
2013-01-23 21:52:00,6.0,-8.6,30.18,WNW,290,0.0,0.0,50,0.00,,,0.00,WeatherCatV1.02B3,2013-01-24 02:52:00,
2013-01-23 21:57:00,5.9,-8.3,30.18,West,265,0.0,0.0,51,0.00,,,0.00,WeatherCatV1.02B3,2013-01-24 02:57:00,
2013-01-23 22:02:00,5.9,-8.3,30.18,West,281,0.0,0.0,51,0.00,,,0.00,WeatherCatV1.02B3,2013-01-24 03:02:00,
2013-01-23 22:07:00,5.8,-8.0,30.18,West,281,0.0,0.0,52,0.00,,,0.00,WeatherCatV1.02B3,2013-01-24 03:07:00,
2013-01-23 22:12:00,5.6,-8.2,30.18,WNW,289,0.0,0.0,52,0.00,,,0.00,WeatherCatV1.02B3,2013-01-24 03:12:00,
2013-01-23 22:17:00,5.5,-7.5,30.18,WNW,289,0.0,0.0,54,0.00,,,0.00,WeatherCatV1.02B3,2013-01-24 03:17:00,
2013-01-23 22:23:00,5.2,-7.8,30.18,WNW,289,0.0,0.0,54,0.00,,,0.00,WeatherCatV1.02B3,2013-01-24 03:23:00,
2013-01-23 22:28:00,5.1,-7.9,30.18,WNW,289,0.0,0.0,54,0.00,,,0.00,WeatherCatV1.02B3,2013-01-24 03:28:00,
2013-01-23 22:33:00,5.1,-7.9,30.18,WNW,289,0.0,0.0,54,0.00,,,0.00,WeatherCatV1.02B3,2013-01-24 03:33:00,
2013-01-23 22:38:00,5.0,-8.0,30.18,WNW,289,0.0,0.0,54,0.00,,,0.00,WeatherCatV1.02B3,2013-01-24 03:38:00,
2013-01-23 22:44:00,5.1,-7.9,30.18,WNW,290,0.0,0.0,54,0.00,,,0.00,WeatherCatV1.02B3,2013-01-24 03:44:00,
2013-01-23 22:49:00,5.1,-7.9,30.18,West,270,0.0,0.0,54,0.00,,,0.00,WeatherCatV1.02B3,2013-01-24 03:49:00,
2013-01-23 22:54:00,5.2,-7.4,30.18,West,279,0.0,0.0,55,0.00,,,0.00,WeatherCatV1.02B3,2013-01-24 03:54:00,
2013-01-23 22:59:00,5.2,-7.4,30.18,West,273,0.0,0.0,55,0.00,,,0.00,WeatherCatV1.02B3,2013-01-24 03:59:00,
2013-01-23 23:06:00,5.2,-7.4,30.18,WNW,283,0.0,0.0,55,0.00,,,0.00,WeatherCatV1.02B3,2013-01-24 04:06:00,
2013-01-23 23:11:00,5.2,-7.4,30.18,West,269,0.0,0.0,55,0.00,,,0.00,WeatherCatV1.02B3,2013-01-24 04:11:00,
2013-01-23 23:16:00,5.3,-7.3,30.18,WSW,257,0.0,0.0,55,0.00,,,0.00,WeatherCatV1.02B3,2013-01-24 04:16:00,
2013-01-23 23:21:00,5.2,-7.4,30.18,WNW,293,0.0,0.0,55,0.00,,,0.00,WeatherCatV1.02B3,2013-01-24 04:21:00,
2013-01-23 23:26:00,5.2,-7.8,30.18,West,270,0.0,0.0,54,0.00,,,0.00,WeatherCatV1.02B3,2013-01-24 04:26:00,
2013-01-23 23:31:00,5.2,-7.8,30.18,WNW,283,0.0,0.0,54,0.00,,,0.00,WeatherCatV1.02B3,2013-01-24 04:31:00,
2013-01-23 23:36:00,5.1,-7.5,30.17,SSW,198,0.0,0.0,55,0.00,,,0.00,WeatherCatV1.02B3,2013-01-24 04:36:00,
2013-01-23 23:41:00,5.0,-7.6,30.17,WNW,291,0.0,0.0,55,0.00,,,0.00,WeatherCatV1.02B3,2013-01-24 04:41:00,
2013-01-23 23:46:00,5.0,-5.5,30.17,WNW,282,0.0,0.0,61,0.00,,,0.00,WeatherCatV1.02B3,2013-01-24 04:46:00,
2013-01-23 23:51:00,4.9,-7.7,30.18,WNW,294,0.0,0.0,55,0.00,,,0.00,WeatherCatV1.02B3,2013-01-24 04:51:00,
2013-01-23 23:56:00,4.8,-7.8,30.17,West,276,0.0,0.0,55,0.00,,,0.00,WeatherCatV1.02B3,2013-01-24 04:56:00,